Weather History for Celle, Germany

Change the Weather History Date:

Wednesday, February 6, 2013

  Actual Average (EDDV) Record (EDDV)
Temperature  
Mean Temperature 32 °F -  
Max Temperature 41 °F 41 °F 57 °F (2004)
Min Temperature 24 °F 31 °F 1 °F (2012)
Degree Days  
Heating Degree Days 32    
Moisture  
Dew Point 28 °F    
Average Humidity 82    
Maximum Humidity 100    
Minimum Humidity 57    
Precipitation  
Precipitation 0.00 in - - ()
Sea Level Pressure  
Sea Level Pressure 29.47 in    
Wind  
Wind Speed 4 mph ()    
Max Wind Speed 8 mph    
Max Gust Speed -    
Visibility 6.1 miles    
Events      
Averages and records for this station are not official NWS values.
T = Trace of Precipitation, MM = Missing Value Source: Averaged Metar Reports

Daily Weather History Graph

Daily Weather History Graph

Search for Another Location

Airport:

Trip Planner

Search our weather history database for the weather conditions in past years. The results will help you decide how hot, cold, wet, or windy it might be!

Date:

Astronomy

Feb. 06, 2013 Rise Set
Actual Time 7:53 AM CET 5:15 PM CET
Civil Twilight 7:16 AM CET 5:52 PM CET
Nautical Twilight 6:35 AM CET 6:32 PM CET
Astronomical Twilight 5:56 AM CET 7:12 PM CET
Moon 4:36 AM CET (2/6) 12:59 PM CET (2/6)
Length of Visible Light 10h 35m
Length of Day
9h 22m
Waning Crescent, 19% of the Moon is Illuminated
Feb 6
Waning Crescent
Feb 10
New
Feb 17
First Quarter
Feb 25
Full
Mar 4
Last Quarter

Hourly Weather History & Observations

Time (CET) Temp. Windchill Dew Point Humidity Pressure Visibility Wind Dir Wind Speed Gust Speed Precip Events Conditions
12:20 AM 32.0 °F 27.5 °F 28.4 °F 87% 29.42 in 6.2 mi SW 4.6 mph - N/A   Partly Cloudy
1:20 AM 30.2 °F 26.7 °F 26.6 °F 86% 29.42 in 6.2 mi SSW 3.5 mph - N/A   Partly Cloudy
2:20 AM 30.2 °F 26.7 °F 26.6 °F 86% 29.42 in 6.2 mi SSW 3.5 mph - N/A   Partly Cloudy
3:20 AM 26.6 °F 22.6 °F 24.8 °F 93% 29.42 in 6.2 mi South 3.5 mph - N/A   Unknown
4:20 AM 28.4 °F 23.3 °F 28.4 °F 100% 29.42 in 6.2 mi SSW 4.6 mph - N/A   Unknown
5:20 AM 28.4 °F 24.6 °F 26.6 °F 93% 29.42 in 6.2 mi SW 3.5 mph - N/A   Unknown
6:20 AM 28.4 °F 24.6 °F 26.6 °F 93% 29.42 in 5.0 mi SSW 3.5 mph - N/A   Unknown
7:20 AM 24.8 °F 20.5 °F 24.8 °F 100% 29.44 in 6.2 mi SSW 3.5 mph - N/A   Scattered Clouds
8:20 AM 26.6 °F - 24.8 °F 93% 29.44 in 6.2 mi SSW 2.3 mph - N/A   Partly Cloudy
9:20 AM 32.0 °F - 28.4 °F 87% 29.44 in 6.2 mi SW 1.2 mph - N/A   Scattered Clouds
10:20 AM 33.8 °F 29.6 °F 28.4 °F 81% 29.44 in 6.2 mi WSW 4.6 mph - N/A   Partly Cloudy
12:20 PM 37.4 °F 32.8 °F 28.4 °F 70% 29.47 in 6.2 mi West 5.8 mph - N/A   Partly Cloudy
1:20 PM 39.2 °F 35.0 °F 28.4 °F 65% 29.47 in 6.2 mi WSW 5.8 mph - N/A   Scattered Clouds
2:20 PM 41.0 °F 36.4 °F 26.6 °F 57% 29.47 in 6.2 mi West 6.9 mph - N/A   Scattered Clouds
3:20 PM 41.0 °F 36.4 °F 26.6 °F 57% 29.47 in 6.2 mi West 6.9 mph - N/A   Mostly Cloudy
4:20 PM 39.2 °F 34.2 °F 28.4 °F 65% 29.50 in 6.2 mi West 6.9 mph - N/A   Mostly Cloudy
5:20 PM 37.4 °F 33.8 °F 28.4 °F 70% 29.50 in 6.2 mi West 4.6 mph - N/A   Mostly Cloudy
6:20 PM 35.6 °F 31.7 °F 28.4 °F 75% 29.53 in 6.2 mi WSW 4.6 mph - N/A   Mostly Cloudy
7:20 PM 37.4 °F 32.8 °F 30.2 °F 75% 29.53 in 6.2 mi WSW 5.8 mph - N/A   Light Drizzle
7:22 PM 37.4 °F 32.8 °F 30.2 °F 75% 29.53 in 6.2 mi West 5.8 mph - N/A   Light Drizzle
8:20 PM 35.6 °F 29.9 °F 32.0 °F 87% 29.53 in 6.2 mi West 6.9 mph - N/A   Mostly Cloudy
9:20 PM 35.6 °F 30.7 °F 33.8 °F 93% 29.56 in 6.2 mi WSW 5.8 mph - N/A   Mostly Cloudy
10:20 PM 35.6 °F 29.2 °F 33.8 °F 93% 29.56 in 6.2 mi West 8.1 mph - N/A   Mostly Cloudy
11:20 PM 35.6 °F 30.7 °F 33.8 °F 93% 29.56 in 6.2 mi West 5.8 mph - N/A   Mostly Cloudy